User: anonymous
Location: Clinton NY
(43.0598°N, 75.3602°W)
Time: 09:41:05
(UTC-04:00)
Language:

Iridium 11 - Orbit

View from above orbital plane
View from above orbital plane
View from above satellite
View from above satellite

Ground track
Ground track

The orbit data is extracted from the following two-line orbital elements,

1 25578U 98074B   14243.33930306  .00000255  00000-0  83941-4 0    22
2 25578 086.3988 322.3336 0002339 106.6915 321.4775 14.34218835831086
Epoch (UTC): 31 August 2014 08:08:35
Eccentricity: 0.0002339
inclination: 86.3988°
perigee height: 776 km
apogee height: 779 km
right ascension of ascending node: 322.3336°
argument of perigee: 106.6915°
revolutions per day: 14.34218835
mean anomaly at epoch: 321.4775°
orbit number at epoch: 83108

The dashed part of the orbit path shows where the satellite is in the earth's shadow,  

DLR